Overview Statistics Trail Chart Weather Telemetry Raw packets
 

This is the latest recevied weather packets stored in our database for station/object K6CEG. If no packets are shown the sender has not sent any weather packets the latest 10 day(s).

<< 39 40 41 42 43 44 45 >>
Time Temp. Humidity Pressure Rain* Wind** Luminosity Snow
1788414529 20° C 57% 1016.6 hPa 0 mm - 0 W/m² -
1788414224 20° C 58% 1016.4 hPa 0 mm - 0 W/m² -
1788413921 19.44° C 59% 1016.6 hPa 0 mm - 0 W/m² -
1788413621 19.44° C 58% 1016.7 hPa 0 mm - 0 W/m² -
1788413317 19.44° C 57% 1016.7 hPa 0 mm - 0 W/m² -
1788413012 20° C 57% 1016.7 hPa 0 mm - 0 W/m² -
1788412708 20° C 56% 1016.6 hPa 0 mm - 0 W/m² -
1788412403 20° C 57% 1016.5 hPa 0 mm - 0 W/m² -
1788412098 20° C 58% 1016.7 hPa 0 mm - 0 W/m² -
1788411797 20° C 57% 1016.7 hPa 0 mm - 0 W/m² -
1788411492 20.56° C 56% 1016.7 hPa 0 mm - 0 W/m² -
1788411188 20.56° C 55% 1016.8 hPa 0 mm - 0 W/m² -
1788410887 20.56° C 55% 1017 hPa 0 mm - 0 W/m² -
1788410579 20.56° C 55% 1016.9 hPa 0 mm - 0 W/m² -
1788410276 21.11° C 55% 1017 hPa 0 mm - 0 W/m² -
1788409976 21.11° C 55% 1016.7 hPa 0 mm - 0 W/m² -
1788409675 21.11° C 55% 1016.8 hPa 0 mm - 0 W/m² -
1788409371 21.11° C 55% 1016.7 hPa 0 mm - 0 W/m² -
1788409066 21.11° C 55% 1016.6 hPa 0 mm - 0 W/m² -
1788408763 21.67° C 55% 1016.8 hPa 0 mm - 0 W/m² -
1788408457 21.11° C 56% 1016.7 hPa 0 mm - 0 W/m² -
1788408157 21.67° C 57% 1016.5 hPa 0 mm - 0 W/m² -
1788407853 21.67° C 57% 1016.5 hPa 0 mm - 0 W/m² -
1788407549 21.67° C 57% 1016.5 hPa 0 mm - 0 W/m² -
1788407249 21.67° C 57% 1016.5 hPa 0 mm - 0 W/m² -

* Rain latest hour (hover to see other rain measurements)
** Current wind speed in m/s (hover to see current wind gust speed)